Regional Weather Roundup
Issued by NWS

Home | Current Version | Previous Version | Text Only | Print | Product List | Glossary Off
Versions: 1 2 3 4 5 6 7 8 9 10 11 12 13 14 15 16 17 18 19 20 21 22 23 24 25 26 27 28 29 30 31 32 33 34 35 36 37 38 39 40 41 42 43 44 45 46 47 48 49 50

000
ASUS43 KTOP 171708
RWRKS

WEATHER ROUNDUP FOR KANSAS
NATIONAL WEATHER SERVICE GOODLAND KS
1100 AM CST FRI NOV 17 2017

NOTE:  "FAIR" INDICATES FEW OR NO CLOUDS BELOW 12,000 FEET WITH NO
SIGNIFICANT WEATHER AND/OR OBSTRUCTIONS TO VISIBILITY.

KSZ001>006-013>018-027>032-041>047-171800-
NORTHWEST KANSAS

CITY           SKY/WX    TMP DP  RH WIND       PRES   REMARKS
GOODLAND       SUNNY     73  33  23 W18G29    29.60F
HAYS           SUNNY     63  46  54 SW13      29.59F
HILL CITY      SUNNY     72  36  26 W12       29.57S
RUSSELL        SUNNY     65  50  58 SW17      29.57F
$$

KSZ061>065-074>080-084>089-171800-
SOUTHWEST KANSAS

CITY           SKY/WX    TMP DP  RH WIND       PRES   REMARKS
DODGE CITY     CLOUDY    70  37  29 W20       29.65S
ELKHART        CLOUDY    73  39  29 SW18      29.73F
GARDEN CITY    CLOUDY    71  34  25 W14       29.65F
LIBERAL        CLOUDY    70  37  29 SW17      29.71F
PRATT          PTSUNNY   63  47  56 S14       29.64F
$$

KSZ066>073-081>083-090>101-171800-
SOUTHEAST KANSAS

CITY           SKY/WX    TMP DP  RH WIND       PRES   REMARKS
CHANUTE        CLOUDY    65  60  84 S17G28    29.69F
COFFEYVILLE    CLOUDY    66  60  81 S15G26    29.71F
HUTCHINSON     SUNNY     69  56  62 S18       29.61F
MEDICINE LODGE   N/A     65  53  65 S9        29.64F
NEWTON         CLOUDY    66  57  72 SW25      29.63F
PARSONS        CLOUDY    65  61  87 S12G22    29.72F
WICHITA INTL   MOSUNNY   68  58  70 S25       29.63F
WICHITA JABRA  SUNNY     68  58  70 S21G35    29.63F
WICHITA MCCONL SUNNY     69  56  65 SW25      29.63F
WINFIELD       MOSUNNY   69  61  75 SW20G29   29.68F
$$

KSZ007>012-019>026-033>040-048>060-102>105-171800-
NORTHEAST KANSAS

CITY           SKY/WX    TMP DP  RH WIND       PRES   REMARKS
CONCORDIA      SUNNY     65  52  62 W9        29.57S
EMPORIA        CLOUDY    63  58  83 S20G26    29.63F
LAWRENCE       CLOUDY    62  58  86 S18G24    29.65F
MANHATTAN      MOSUNNY   69  57  65 SW20G28   29.57F
MARYSVILLE     CLOUDY    64  55  72 S14       29.58F
OLATHE IND     CLOUDY    60  58  92 S14G24    29.68F
OLATHE EXE     CLOUDY    57  57 100 S14       29.68F FOG
SALINA         SUNNY     71  57  61 S20       29.57F
TOPEKA BILLARD CLOUDY    61  58  90 S13G22    29.63F
TOPEKA FORBES  CLOUDY    62  58  86 S14G24    29.62F
$$




USA.gov is the U.S. government's official web portal to all federal, state and local government web resources and services.